Location: Emporia
(38.4040°N, 96.1810°W)
Time: 14:49:45
(UTC-06:00)

STARS - Visible Passes

Search period start: 20 January 2018 00:00
Search period end: 30 January 2018 00:00
Orbit: 625 x 641 km, 98.3° (Epoch: 19 January)

Date Brightness Start Highest point End Pass type
(mag) Time Alt. Az. Time Alt. Az. Time Alt. Az.
20 Jan ? 05:27:54 10° SSE 05:32:11 61° ENE 05:34:20 28° N visible
20 Jan ? 07:08:01 10° WSW 07:08:52 10° W 07:09:45 10° W visible
20 Jan ? 18:54:36 10° N 18:58:55 55° WNW 19:03:14 10° SSW visible
21 Jan ? 05:49:09 10° S 05:53:29 76° WSW 05:56:04 24° NNW visible
21 Jan ? 19:16:14 10° N 19:20:09 32° WNW 19:24:05 10° SW visible
22 Jan ? 04:36:13 10° ESE 04:38:54 16° ENE 04:40:21 14° NE visible
22 Jan ? 06:10:44 10° S 06:14:52 42° W 06:17:48 18° NW visible
22 Jan ? 18:01:12 10° NNE 18:05:16 35° E 18:09:20 10° SSE visible
22 Jan ? 19:38:09 10° NNW 19:41:20 20° WNW 19:44:31 10° WSW visible
23 Jan ? 04:56:25 10° SE 05:00:03 26° ENE 05:02:06 19° NNE visible
23 Jan ? 06:32:43 10° SSW 06:36:18 25° W 06:39:33 12° NW visible
23 Jan ? 18:22:16 10° NNE 18:26:40 63° ESE 18:31:03 10° S visible
23 Jan ? 20:00:45 10° NW 20:02:26 12° WNW 20:04:07 10° W visible
24 Jan ? 05:17:07 10° SE 05:21:15 44° ENE 05:23:52 21° N visible
24 Jan ? 06:55:22 10° SW 06:57:48 15° W 07:00:14 10° WNW visible
24 Jan ? 18:43:34 10° N 18:48:00 75° WNW 18:52:25 10° SSW visible
25 Jan ? 05:38:11 10° SSE 05:42:32 79° ENE 05:45:39 19° N visible
25 Jan ? 19:05:05 10° N 19:09:16 43° WNW 19:13:27 10° SW visible
26 Jan ? 04:26:18 10° E 04:28:04 12° ENE 04:29:51 10° NE visible
26 Jan ? 05:59:35 10° S 06:03:52 59° W 06:07:27 15° NNW visible
26 Jan ? 19:26:49 10° NNW 19:30:28 26° WNW 19:34:08 10° SW visible
27 Jan ? 04:45:59 10° ESE 04:49:11 20° ENE 04:51:49 12° NNE visible
27 Jan ? 06:21:20 10° SSW 06:25:16 33° W 06:29:14 10° NNW visible
27 Jan ? 18:11:25 10° NNE 18:15:41 45° E 18:19:56 10° S visible
27 Jan ? 19:48:56 10° NNW 19:51:37 16° WNW 19:54:17 10° WSW visible
28 Jan ? 05:06:27 10° SE 05:10:21 33° ENE 05:13:40 13° N visible
28 Jan ? 06:43:33 10° SW 06:46:43 20° W 06:49:56 10° NW visible
28 Jan ? 18:32:36 10° NNE 18:37:03 81° ESE 18:41:29 10° S visible
29 Jan ? 05:27:19 10° SSE 05:31:35 57° ENE 05:35:32 12° N visible
29 Jan ? 18:53:59 10° N 18:58:21 58° WNW 19:02:42 10° SSW visible
